Weather in Sukhaya

Russia / Republic of Buryatia     52°32′40″N   107°06′45″E
temp.,
°C
wind,
m/s
gust,
m/s
humid.,
%
clouds,
%
prec.,
mm/h
press.,
hPa
HPBL,
m
23 october, sat
sat2323:00+5e22600 0.0 102237
02:00+5ese11570 0.0 102133
05:00+4se00520 0.0 102271
08:00+4s11545 0.0 102364
11:00+5wsw226125 0.0 1024196
14:00+5wsw34585 0.0 1024201
17:00+6sw566339 0.0 1024145
20:00+5s67770 0.0 1025195
24 october, sun
sun2423:00+4s788199 0.0 1025225
02:00+4s7977100 0.0 1023324
05:00+4s6878100 0.0 1022349
08:00+4ssw5779100 0.0 1022363
11:00+5ssw677626 0.0 1021466
14:00+6wsw45735 0.0 1020432
17:00+6sw447296 0.0 1020102
20:00+5s55775 0.0 1021137
25 october, mon
mon2523:00+5s56796 0.0 1021180
02:00+5s567765 0.0 1020209
05:00+5s4672100 0.0 1020175
08:00+5sw4668100 0.0 1021267
11:00+4ssw4490100 1.8 1023258
14:00+5sw5773100 2.0 1024913
17:00+6wsw687823 0.6 1024416
20:00+5w45755 0.8 1025168
26 october, tue
tue2623:00+3s66905 0.0 1025179
02:00+4sse568097 0.0 1022135
05:00+4sse2368100 0.0 102080
08:00+4s577524 0.0 1019155
11:00+7ssw696596 0.0 1019334
14:00+7ssw576657 0.0 1020194
17:00+7sw4571100 0.0 102052
20:00+6wsw45785 0.0 102258
27 october, wed
wed2723:00+5w35702 0.0 1023123
02:00+4sse22675 0.0 102377
05:00+4ese22555 0.0 102259
08:00+5ene345599 0.0 1020124
11:00+6ne3464100 0.0 1018178
14:00+6ne4567100 0.0 1017263
17:00+6ne66745 0.0 1018228
20:00+5ne347429 0.0 1019219